CAPE
1 2 2 3 1 0 0 0 0 0 0 0 0 0 0 0 0 0 0 0 0 0 0 0 0 0 0 0 0 0 0 0 0 0 0 0 0 0 0 1 25 122 42 81 55
0 0 0 0 0 0 1 0 0 0 0 0 0 0 0 0 0 0 0 0 0 0 0 0 0 0 0 0 0 0 0 0 0 0 0 0 0 0 0 0 1 9 21 41 44
0 0 0 0 0 0 0 0 0 0 0 0 0 0 0 0 0 0 0 0 0 0 0 0 0 0 0 0 0 0 0 0 0 0 0 0 0 0 0 0 0 0 0 30 27
0 0 0 0 0 0 0 0 0 0 0 0 0 0 0 0 0 0 0 0 0 0 0 0 0 0 0 0 0 0 0 0 0 0 0 0 0 0 0 0 0 0 0 12 13
0 0 0 0 0 0 0 0 0 0 0 0 0 0 0 0 0 0 0 0 0 0 0 0 0 0 0 0 0 0 0 0 0 0 0 0 0 0 0 0 0 0 0 4 10
5 0 0 0 0 0 0 0 0 0 0 0 0 0 0 0 0 0 0 0 0 0 0 0 0 0 0 0 0 0 0 0 0 0 0 0 0 0 0 0 0 0 0 0 2
10 3 0 0 0 0 0 0 0 0 0 0 3 0 0 0 0 0 0 0 0 0 0 0 0 0 0 0 0 0 0 0 0 0 0 0 0 0 0 0 0 0 0 0 0
6 2 0 0 0 0 0 0 0 0 0 0 5 0 0 0 0 0 0 0 0 0 0 0 0 0 0 0 0 0 0 0 0 0 0 0 0 0 0 0 0 0 0 0 0
11 2 0 0 0 0 0 0 0 0 0 1 0 0 0 0 0 0 0 0 0 0 0 0 0 0 0 0 0 0 0 0 0 0 0 0 0 0 0 0 0 0 0 0 0
12 1 0 0 0 0 0 0 0 0 0 0 0 0 0 0 0 0 0 0 0 0 0 0 0 0 0 0 0 0 0 0 0 0 0 0 0 0 0 0 0 0 0 0 0
12 0 0 0 1 0 0 0 0 0 0 0 0 0 0 0 0 0 0 0 0 0 0 0 0 0 0 0 0 0 0 0 0 0 0 0 0 0 0 0 0 0 0 0 0
7 0 1 0 1 0 0 1 5 0 0 0 0 0 0 0 0 0 0 0 0 0 0 0 0 0 0 0 0 0 0 0 0 0 0 0 0 0 0 0 0 0 0 0 0
6 0 0 0 0 0 0 0 0 0 0 0 0 0 0 0 0 0 0 0 0 0 0 0 0 0 0 0 0 0 0 0 0 0 0 0 0 0 0 0 0 0 0 0 0
6 0 0 0 0 0 0 0 0 0 0 0 0 0 0 0 0 0 0 0 0 0 0 0 0 0 0 0 0 0 0 0 0 0 0 0 0 0 0 0 0 0 0 0 0
7 0 0 4 14 0 0 0 0 0 0 0 0 0 0 0 0 0 0 0 0 0 0 0 0 0 0 0 0 0 0 0 0 0 0 0 0 0 0 0 0 0 0 0 0
14 3 5 0 5 0 0 0 0 1 0 0 0 0 0 0 0 0 0 0 0 0 0 0 0 0 0 0 0 0 0 0 0 0 0 0 0 0 0 0 0 0 0 0 0
12 10 3 11 16 0 0 0 0 0 0 0 0 0 0 0 0 0 0 0 0 0 0 0 0 0 0 0 0 0 0 0 0 0 0 0 0 0 0 0 0 0 0 0 0
11 8 0 0 7 10 1 0 0 0 0 0 0 0 0 0 0 0 0 0 0 0 0 0 0 0 0 0 0 0 0 0 0 0 0 0 0 0 0 0 0 0 0 0 0
15 0 0 0 8 21 2 0 0 0 0 0 0 0 0 0 0 0 0 0 0 0 0 0 0 0 0 0 0 0 0 0 0 0 0 0 0 0 0 0 0 0 0 0 0
13 3 0 0 10 12 1 3 0 2 0 0 0 0 0 0 0 0 0 0 0 0 0 0 0 0 0 0 0 0 0 0 0 0 0 0 0 0 0 0 0 0 0 0 0
9 9 0 0 19 17 8 0 0 0 0 0 0 0 0 0 0 0 0 0 0 0 0 0 0 0 0 0 0 0 0 0 0 0 0 0 0 0 0 0 0 0 0 0 0
12 6 4 23 15 5 12 0 0 0 0 0 0 0 0 0 0 0 0 0 0 0 0 0 0 0 0 0 0 0 0 0 0 0 0 0 0 0 0 0 0 0 0 0 0
8 9 10 47 6 1 8 0 0 0 0 0 0 0 0 0 0 0 0 0 0 0 0 0 0 0 0 0 0 0 0 0 0 0 0 0 0 0 0 0 0 0 0 0 0
20 8 2 42 1 0 2 12 0 0 0 0 0 0 0 0 0 0 0 0 0 0 10 3 1 0 0 0 0 0 0 0 0 0 0 0 0 0 0 0 0 0 0 0 0
12 1 7 1 4 1 2 3 0 0 0 0 0 0 0 0 0 0 0 0 0 0 0 15 0 0 0 0 0 0 0 0 0 0 0 0 0 0 0 0 0 0 0 0 0
13 14 14 11 1 4 13 3 0 0 0 0 0 0 0 0 0 0 0 0 0 0 0 0 0 5 0 0 0 0 0 0 0 0 0 0 0 0 0 0 0 0 0 0 0
12 2 22 1 0 3 1 0 0 0 0 0 0 0 0 0 0 0 0 0 0 0 0 0 0 0 0 0 0 0 0 0 0 0 0 0 0 0 0 0 0 0 0 0 0
CIN
0 0 0 0 -1 0 0 0 0 0 0 0 0 0 0 0 0 0 0 0 0 0 0 0 0 0 0 0 0 0 0 0 0 0 0 0 0 0 0 -45 -187 -175 -195 -169 -190
0 0 0 0 0 0 -1 0 0 0 0 0 0 0 0 0 0 0 0 0 0 0 0 0 0 0 0 0 0 0 0 0 0 0 0 0 0 0 0 0 -67 -176 -228 -206 -161
0 0 0 0 0 0 0 0 0 0 0 0 0 0 0 0 0 0 0 0 0 0 0 0 0 0 0 0 0 0 0 0 0 0 0 0 0 0 0 0 0 -2 0 -200 -178
0 0 0 0 0 0 0 0 0 0 0 0 0 0 0 0 0 0 0 0 0 0 0 0 0 0 0 0 0 0 0 0 0 0 0 0 0 0 0 0 0 0 0 -246 -251
0 0 0 0 0 0 0 0 0 0 0 0 0 0 0 0 0 0 0 0 0 0 0 0 0 0 0 0 0 0 0 0 0 0 0 0 0 0 0 0 0 0 0 -157 -263
-3 0 0 0 0 0 0 0 0 0 0 0 0 0 0 0 0 0 0 0 0 0 0 0 0 0 0 0 0 0 0 0 0 0 0 0 0 0 0 0 0 0 0 0 -302
0 -1 0 0 0 0 0 0 0 0 0 0 0 0 0 0 0 0 0 0 0 0 0 0 0 0 0 0 0 0 0 0 0 0 0 0 0 0 0 0 0 0 0 0 0
-2 -5 -1 0 0 0 0 0 0 0 0 0 0 0 0 0 0 0 0 0 0 0 0 0 0 0 0 0 0 0 0 0 0 0 0 0 0 0 0 0 0 0 0 0 0
-3 -3 0 0 0 0 0 0 0 0 0 0 0 0 0 0 0 0 0 0 0 0 0 0 0 0 0 0 0 0 0 0 0 0 0 0 0 0 0 0 0 0 0 0 0
-1 -1 0 0 0 0 0 0 0 0 0 0 0 0 0 0 0 0 0 0 0 0 0 0 0 0 0 0 0 0 0 0 0 0 0 0 0 0 0 0 0 0 0 0 0
0 0 0 0 -11 0 0 0 0 0 0 0 0 0 0 0 0 0 0 0 0 0 0 0 0 0 0 0 0 0 0 0 0 0 0 0 0 0 0 0 0 0 0 0 0
-2 0 -3 0 -14 0 0 -1 -1 -2 0 0 0 0 0 0 0 0 0 0 0 0 0 0 0 0 0 0 0 0 0 0 0 0 0 0 0 0 0 0 0 0 0 0 0
-2 0 -1 0 -3 0 0 0 0 0 0 0 0 0 0 0 0 0 0 0 0 0 0 0 0 0 0 0 0 0 0 0 0 0 0 0 0 0 0 0 0 0 0 0 0
-3 0 0 0 0 0 0 0 0 0 -1 0 0 0 0 0 0 0 0 0 0 0 0 0 0 0 0 0 0 0 0 0 0 0 0 0 0 0 0 0 0 0 0 0 0
-2 0 -1 -7 -2 0 0 0 0 -1 0 0 0 0 0 0 0 0 0 0 0 0 0 0 0 0 0 0 0 0 0 0 0 0 0 0 0 0 0 0 0 0 0 0 0
-1 -8 -6 0 -4 -1 0 0 0 -3 0 0 0 0 0 0 0 0 0 0 0 0 0 0 0 0 0 0 0 0 0 0 0 0 0 0 0 0 0 0 0 0 0 0 0
-7 -10 -3 -1 -1 0 -3 0 0 0 0 0 0 0 0 0 0 0 0 0 0 0 0 0 0 0 0 0 0 0 0 0 0 0 0 0 0 0 0 0 0 0 0 0 0
-7 -5 0 0 -6 -15 -3 0 0 0 0 0 0 0 0 0 0 0 0 0 0 0 0 0 0 0 0 0 0 0 0 0 0 0 0 0 0 0 0 0 0 0 0 0 0
-2 0 0 0 -19 -10 -7 0 0 0 0 0 0 0 0 0 0 0 0 0 0 0 0 0 0 0 0 0 0 0 0 0 0 0 0 0 0 0 0 0 0 0 0 0 0
-1 -1 0 0 -26 -2 -4 -1 0 -15 -5 0 0 0 0 0 0 0 0 0 0 0 0 0 0 0 0 0 0 0 0 0 0 0 0 0 0 0 0 0 0 0 0 0 0
-1 0 0 0 -4 -1 -1 0 -10 0 0 0 0 0 0 0 0 0 0 0 0 0 0 0 0 0 0 0 0 0 0 0 0 0 0 0 0 0 0 0 0 0 0 0 0
-1 -1 -24 -15 -1 -1 -1 0 0 0 0 0 0 0 0 0 0 0 0 0 0 0 0 0 0 0 0 0 0 0 0 0 0 0 0 0 0 0 0 0 0 0 0 0 0
0 -1 -16 -3 0 -1 -2 -21 0 0 0 0 0 0 0 0 0 0 0 0 0 0 -5 0 0 0 0 0 0 0 0 0 0 0 0 0 0 0 0 0 0 0 0 0 0
-1 -1 -3 0 -1 0 -3 -3 0 0 0 0 0 0 0 0 0 0 0 0 0 0 -38 -9 -6 0 0 0 0 0 0 0 0 0 0 0 0 0 0 0 0 0 0 0 0
-2 -11 -4 -1 0 0 -3 -4 0 0 0 0 0 0 0 0 0 0 0 0 0 0 -6 -16 -1 0 0 0 0 0 0 0 0 0 0 0 0 0 0 0 0 0 0 0 0
-4 -3 -4 -1 -17 -1 -4 -30 0 0 0 0 0 0 0 0 0 0 0 0 0 0 0 0 0 -17 0 0 0 0 0 0 0 0 0 0 0 0 0 0 0 0 0 0 0
0 -1 -1 -1 0 -1 0 0 0 0 0 0 0 0 0 0 0 0 0 0 0 0 0 0 0 0 0 0 0 0 0 0 0 0 0 0 0 0 0 0 0 0 0 0 0
Wind_Speed
33 34 35 36 37 36 37 36 37 37 37 37 39 38 39 39 41 30 29 20 18 11 10 3 7 7 7 8 10 10 13 13 12 12 11 10 8 13 14 11 17 16 16 20 18
32 33 34 35 36 37 37 38 38 38 37 38 38 39 39 40 37 34 26 21 16 6 8 4 5 3 7 7 8 7 13 10 6 8 7 9 6 9 11 11 15 17 15 17 18
31 31 33 35 36 37 37 37 38 39 39 38 38 38 39 36 33 23 27 18 10 3 10 10 4 5 7 8 7 9 12 5 6 3 5 7 8 7 7 3 8 12 14 13 16
32 33 33 35 36 36 36 38 39 39 41 40 38 37 38 27 29 20 21 12 7 6 8 9 6 8 8 7 6 14 17 8 12 11 12 5 10 7 3 13 18 14 14 13 14
32 32 34 35 35 36 37 38 39 40 42 40 37 34 31 31 31 25 21 16 9 10 14 10 8 10 12 8 8 12 24 16 5 8 8 6 3 4 1 12 16 15 14 13 14
31 33 34 35 36 35 37 38 40 42 43 41 36 29 29 38 23 21 22 20 15 13 16 15 13 10 11 12 8 15 19 27 29 16 10 3 7 7 8 10 13 11 11 12 13
34 34 34 35 37 36 33 38 41 42 43 42 35 29 34 41 26 27 28 23 20 20 18 19 16 12 12 14 14 19 24 28 29 24 8 6 3 2 7 8 10 10 10 12 12
35 36 36 37 37 37 36 33 43 45 43 36 27 27 42 32 31 34 30 30 27 22 21 20 18 18 15 15 17 17 22 26 21 17 13 7 5 10 9 8 7 7 9 10 10
35 36 38 38 39 40 38 37 22 39 33 20 22 26 40 28 30 29 24 27 24 20 20 19 17 18 16 16 21 20 26 23 24 15 13 7 8 12 11 6 5 6 7 8 9
35 36 38 39 39 40 41 46 19 23 23 18 21 29 31 31 28 22 19 21 22 18 21 19 18 21 18 12 22 21 24 24 22 16 13 14 15 10 6 3 5 4 5 6 7
35 36 37 37 37 39 40 29 25 25 28 29 28 28 25 27 28 24 18 17 17 19 21 22 24 22 15 17 21 18 23 25 23 20 24 15 11 18 8 4 5 4 3 4 6
35 36 37 36 36 37 29 25 22 23 38 35 36 40 40 24 27 29 22 21 20 23 22 23 31 22 23 21 18 18 25 29 29 25 22 27 32 7 4 3 3 5 2 3 6
34 35 35 35 33 26 27 21 27 31 33 34 28 30 30 27 35 40 24 22 24 24 22 25 28 22 24 23 20 15 23 26 28 25 26 27 24 18 13 6 3 3 5 3 7
33 34 33 34 26 27 26 24 30 25 33 29 23 22 17 18 33 36 31 28 26 29 21 29 35 23 25 26 19 27 20 25 26 24 26 23 30 24 10 7 5 4 4 4 6
32 32 32 29 26 28 26 30 30 18 31 23 20 16 14 17 24 21 21 32 30 24 23 27 29 31 27 23 17 30 19 21 23 23 26 26 31 23 18 13 12 3 4 4 6
31 31 30 25 22 23 25 29 20 25 30 23 20 21 18 22 24 21 19 24 28 26 29 28 25 27 33 27 21 20 19 18 21 21 30 25 23 26 20 11 3 4 3 4 6
31 30 27 22 24 19 26 26 26 30 24 25 24 25 28 24 21 20 21 24 26 28 31 27 31 25 23 25 19 15 13 25 27 26 30 21 19 27 21 12 4 15 26 11 5
31 29 24 21 18 20 22 24 35 27 28 26 28 29 21 21 21 18 19 25 30 26 25 30 32 28 25 22 22 20 19 25 29 28 27 20 22 21 23 22 21 11 28 26 3
31 27 24 21 14 14 22 33 33 29 28 29 31 25 22 21 20 17 17 22 29 28 28 26 30 23 25 23 19 20 23 22 26 24 26 22 23 31 31 27 27 25 27 30 6
27 29 27 18 11 15 28 37 30 26 25 27 28 23 25 23 20 19 18 20 22 29 27 24 23 21 22 21 26 25 15 22 26 30 34 28 26 23 27 26 26 21 19 12 11
26 30 24 10 10 24 36 33 31 31 29 27 26 28 24 22 21 21 20 16 18 22 27 24 24 20 16 20 21 22 26 23 22 26 31 32 28 18 22 23 20 20 18 17 15
24 32 19 7 25 28 35 29 25 27 26 28 27 27 27 25 24 23 22 19 20 19 16 23 23 29 25 20 17 19 22 25 28 27 26 29 30 27 25 25 20 26 23 19 15
26 28 18 16 32 32 29 30 27 29 29 28 29 25 24 26 28 23 22 22 21 19 18 19 22 21 21 27 24 25 24 27 28 28 33 34 31 22 25 27 31 29 24 20 18
25 28 23 21 27 27 27 29 30 26 30 28 31 28 28 30 27 29 27 23 26 23 21 19 18 20 23 20 22 26 28 27 27 32 34 34 33 31 34 34 30 25 30 25 23
24 26 23 24 25 26 26 26 28 30 26 25 32 35 34 33 31 32 29 29 26 23 21 20 22 23 24 24 22 24 27 30 30 30 31 31 31 32 34 35 36 36 35 33 34
24 22 19 24 21 19 22 25 30 28 27 28 30 26 31 36 36 35 30 28 28 24 24 25 25 21 24 25 26 30 32 30 28 30 33 33 36 32 36 38 37 36 34 32 36
21 21 21 24 28 26 18 28 30 25 28 28 26 28 32 34 33 35 35 35 34 31 28 27 26 27 32 28 31 35 28 23 24 24 27 31 32 36 39 39 39 40 39 34 36
Wind_Direction
327 326 325 324 323 322 320 319 317 316 316 315 312 310 307 305 299 306 295 299 302 297 305 310 319 336 342 346 352 2 335 325 333 3 23 29 30 17 11 11 352 355 360 352 358
331 331 330 328 324 321 320 317 315 313 313 312 311 308 307 305 299 293 300 298 293 289 281 259 293 337 327 337 342 345 325 331 15 34 39 30 40 23 17 10 354 350 357 357 357
337 338 336 333 330 323 319 317 314 311 308 308 310 306 304 306 298 297 305 299 286 227 283 290 301 315 312 329 331 325 317 344 358 52 43 41 33 47 42 46 14 9 12 15 7
332 333 335 335 335 334 324 315 312 309 305 303 307 305 301 305 284 306 314 318 303 278 290 289 289 294 303 312 328 309 303 323 330 356 2 46 26 42 61 354 359 12 19 23 18
332 334 334 333 336 336 332 321 311 306 302 300 301 308 299 285 280 294 304 307 299 277 280 282 280 292 293 310 319 301 287 307 176 345 352 24 30 42 73 356 355 9 24 28 20
331 332 332 331 332 337 338 329 315 305 298 297 296 306 294 276 293 294 291 287 283 277 278 281 292 293 302 301 308 304 297 280 278 326 345 17 18 29 20 6 6 26 38 46 43
325 327 328 330 330 333 341 335 317 307 297 290 291 294 283 267 287 286 281 280 276 271 274 279 289 293 301 302 301 296 290 283 283 304 348 17 359 175 24 31 23 34 42 42 60
324 323 325 326 328 330 333 340 320 303 294 293 289 290 277 284 285 274 275 270 270 270 272 280 281 282 295 300 300 296 293 288 303 322 344 30 186 27 45 72 49 46 46 51 67
322 323 323 324 325 326 330 332 331 310 305 306 292 286 279 289 278 278 273 266 266 266 268 281 277 276 281 285 285 289 281 289 293 314 337 17 360 15 15 67 95 51 50 64 64
323 324 324 324 324 327 325 310 346 340 328 315 300 288 281 276 278 282 282 267 263 254 261 266 271 268 272 258 274 282 278 285 290 303 321 331 219 224 17 82 145 81 46 82 82
321 322 324 326 326 326 329 343 345 332 319 294 289 288 283 281 280 272 274 270 267 256 250 260 259 255 256 261 281 287 281 283 290 292 294 322 342 232 20 68 142 140 67 109 120
321 322 323 325 327 327 342 346 355 345 301 295 288 269 264 280 272 262 267 265 262 256 251 259 256 261 267 268 271 284 279 278 286 289 292 293 287 236 22 40 128 164 76 130 122
320 322 323 326 329 339 341 347 341 337 311 305 299 283 275 261 262 254 264 269 264 259 247 247 264 258 259 264 266 273 278 279 282 290 290 296 311 325 346 10 46 106 33 111 150
319 320 323 325 333 333 331 343 336 345 306 308 315 300 294 276 265 260 260 258 261 257 259 258 252 263 259 258 261 271 281 282 287 293 287 298 298 311 337 324 186 162 104 101 151
317 318 320 326 326 322 331 328 330 352 292 329 327 341 321 285 285 278 252 247 252 255 258 260 257 251 257 264 259 267 282 284 289 290 290 289 288 316 337 334 198 164 165 158 151
315 315 319 326 329 328 331 327 338 311 288 312 335 316 316 292 284 287 266 256 253 256 261 260 263 254 254 263 263 272 279 291 291 291 281 292 294 303 325 355 91 152 50 97 142
311 312 316 323 317 333 329 319 303 289 313 306 308 317 301 295 287 278 267 247 248 247 251 257 254 261 260 255 260 263 278 274 275 277 280 299 299 257 317 329 210 206 244 344 122
309 310 313 315 323 323 323 302 282 297 294 309 312 308 305 303 292 280 274 256 249 253 251 251 256 251 256 260 262 253 253 265 271 276 285 296 296 304 305 310 308 335 236 280 29
308 309 308 313 315 317 304 282 286 287 296 301 300 301 306 298 297 289 277 272 255 247 250 254 257 262 256 257 259 264 256 264 277 285 286 293 294 281 286 297 298 304 290 257 321
306 303 301 306 310 302 287 278 283 294 300 297 290 298 289 297 292 288 278 296 272 252 252 257 263 262 257 258 258 259 263 264 269 274 276 284 290 296 300 303 309 315 312 312 305
302 297 306 309 296 287 277 280 281 281 293 290 287 282 288 290 293 285 283 292 300 276 251 255 258 262 265 261 257 258 257 268 275 273 275 279 286 305 306 310 310 313 317 315 307
295 288 307 301 280 283 278 282 282 284 284 286 286 279 276 281 282 282 274 281 299 287 267 259 267 259 262 267 269 268 267 260 264 269 278 280 277 288 296 301 317 296 300 306 315
289 288 297 289 278 276 284 279 276 276 276 277 275 274 277 273 271 279 276 280 290 291 277 270 264 263 265 262 267 266 271 268 270 272 271 275 282 293 293 293 290 290 294 298 301
287 289 284 277 276 277 274 277 272 275 270 274 271 273 269 267 268 268 272 280 286 283 282 276 270 268 262 270 271 264 268 273 273 271 273 276 283 288 284 282 289 297 294 292 291
278 283 285 288 273 268 274 276 268 265 267 272 265 262 262 263 265 262 269 274 279 284 278 279 268 269 268 269 275 274 273 273 272 275 277 282 284 287 285 284 282 290 291 288 282
276 277 285 280 284 261 266 264 262 260 259 262 262 268 263 258 259 259 266 270 269 277 275 276 269 275 274 274 275 273 275 278 278 279 280 282 283 293 290 285 284 285 290 292 289
266 275 281 277 270 270 257 261 255 253 262 262 264 267 263 262 265 264 266 263 264 269 272 272 270 270 271 277 277 274 276 283 288 290 287 284 290 293 288 284 283 282 284 292 291